Weather in Chopovychi

Ukraine / Zhytomyr Region     50°50′00″N   28°57′08″E
temp.,
°C
wind,
m/s
gust,
m/s
humid.,
%
clouds,
%
prec.,
mm/h
press.,
hPa
HPBL,
m
19 september, sun
sun1900:00+11w5883100 0.1 1007532
03:00+11wsw3783100 0.1 1007632
06:00+11ssw3588100 0.3 1006253
09:00+10w4791100 2.2 1007473
12:00+10wsw3583100 0.4 1007634
15:00+8sw4790100 2.1 1008516
18:00+8wsw4789100 0.1 1008577
21:00+7w4790100 0.2 1008503
20 september, mon
mon2000:00+7wsw4792100 0.3 1008524
03:00+7w5893100 0.3 1007515
06:00+7w71295100 0.8 1006586
09:00+7wnw71295100 1.9 1008586
12:00+7wnw71293100 0.7 1010559
15:00+7wnw71189100 0.8 1010625
18:00+6wnw71190100 0.1 1011623
21:00+5wnw71193100 0.5 1012547
21 september, tue
tue2100:00+4wnw71194100 1.3 1013535
03:00+4wnw71296100 2.8 1013632
06:00+5wnw71197100 0.8 1014859
09:00+4wnw71297100 1.0 1015808
12:00+4wnw71296100 0.2 1016773
15:00+5wnw71196100 0.2 1017824
18:00+5wnw61195100 0.0 1018811
21:00+5wnw61094100 0.0 1019867
22 september, wed
wed2200:00+5wnw6992100 0.1 1019943
03:00+5wnw5992100 0.1 1018894
06:00+4wnw5996100 0.1 1018777
09:00+5nw5994100 0.3 1018776
12:00+5nw6889100 0.2 1018922
15:00+6nw5888100 0.3 1017863
18:00+6nw4790100 0.1 1017856
21:00+5nw4795100 0.6 1017742
23 september, thu
thu2300:00+5nw3696100 0.1 1016472
03:00+5nw3696100 0.1 1016414
06:00+5nw3696100 0.0 1015416
09:00+6nw4694100 0.0 1015431
12:00+6wnw3489100 0.0 1015553
15:00+8w4577100 0.2 1015809
18:00+8wsw3576100 0.1 1014562
21:00+7sw2384100 0.1 101464